TimeEDT,TemperatureF,Dew PointF,Humidity,Sea Level PressureIn,VisibilityMPH,Wind Direction,Wind SpeedMPH,Gust SpeedMPH,PrecipitationIn,Events,Conditions,WindDirDegrees,DateUTC
12:53 AM,78.1,73.0,84,30.28,10.0,Calm,Calm,-,N/A,,Clear,0,2013-07-16 04:53:00
1:53 AM,75.0,73.0,94,30.29,9.0,South,4.6,-,N/A,,Clear,190,2013-07-16 05:53:00
2:53 AM,75.9,73.0,91,30.28,7.0,South,3.5,-,N/A,,Clear,180,2013-07-16 06:53:00
3:53 AM,77.0,73.9,90,30.28,7.0,South,3.5,-,N/A,,Clear,180,2013-07-16 07:53:00
4:53 AM,75.0,72.0,90,30.28,7.0,SW,3.5,-,N/A,,Clear,220,2013-07-16 08:53:00
5:53 AM,75.0,72.0,90,30.29,7.0,Calm,Calm,-,N/A,,Clear,0,2013-07-16 09:53:00
6:53 AM,75.0,72.0,90,30.31,7.0,Calm,Calm,-,N/A,,Clear,0,2013-07-16 10:53:00
7:53 AM,79.0,73.0,82,30.32,10.0,West,3.5,-,N/A,,Clear,260,2013-07-16 11:53:00
8:53 AM,82.0,72.0,71,30.33,10.0,West,4.6,-,N/A,,Clear,260,2013-07-16 12:53:00
9:53 AM,84.0,72.0,67,30.33,10.0,WNW,6.9,-,N/A,,Partly Cloudy,290,2013-07-16 13:53:00
10:53 AM,86.0,72.0,63,30.33,10.0,West,8.1,-,N/A,,Scattered Clouds,270,2013-07-16 14:53:00
11:53 AM,88.0,72.0,59,30.32,10.0,WSW,5.8,-,N/A,,Scattered Clouds,250,2013-07-16 15:53:00
12:53 PM,88.0,71.1,57,30.32,10.0,SW,5.8,-,N/A,,Scattered Clouds,220,2013-07-16 16:53:00
1:53 PM,90.0,71.1,54,30.30,10.0,SW,8.1,-,N/A,,Scattered Clouds,220,2013-07-16 17:53:00
2:53 PM,89.1,71.1,55,30.30,10.0,Variable,4.6,-,N/A,,Scattered Clouds,0,2013-07-16 18:53:00
3:53 PM,91.0,71.1,52,30.28,10.0,SW,4.6,-,N/A,,Scattered Clouds,220,2013-07-16 19:53:00
4:53 PM,90.0,71.1,54,30.28,10.0,Variable,5.8,-,N/A,,Scattered Clouds,0,2013-07-16 20:53:00
5:53 PM,88.0,71.1,57,30.28,10.0,WSW,4.6,-,N/A,,Partly Cloudy,250,2013-07-16 21:53:00
6:53 PM,88.0,72.0,59,30.27,10.0,WSW,6.9,-,N/A,,Partly Cloudy,250,2013-07-16 22:53:00
7:53 PM,87.1,72.0,61,30.27,10.0,WSW,4.6,-,N/A,,Scattered Clouds,250,2013-07-16 23:53:00
8:53 PM,84.9,73.0,67,30.27,10.0,Calm,Calm,-,N/A,,Clear,0,2013-07-17 00:53:00
9:53 PM,81.0,73.0,77,30.27,10.0,Calm,Calm,-,N/A,,Clear,0,2013-07-17 01:53:00
10:53 PM,79.0,73.0,82,30.28,9.0,Calm,Calm,-,N/A,,Clear,0,2013-07-17 02:53:00
11:53 PM,78.1,73.0,84,30.27,8.0,SSW,3.5,-,N/A,,Clear,210,2013-07-17 03:53:00